Regional Weather Roundup
Issued by NWS Albany, NY

Home | Current Version | Previous Version | Text Only | Print | Product List | Glossary On
Versions: 1 2 3 4 5 6 7 8 9 10 11 12 13 14 15 16 17 18 19 20 21 22 23 24 25 26 27 28 29 30 31 32 33 34 35 36 37 38 39 40 41 42 43 44 45 46 47 48 49 50
000
ASUS41 KALY 080110
RWRALY

NEW YORK STATE HOURLY WEATHER ROUNDUP
NATIONAL WEATHER SERVICE ALBANY NY
900 PM EDT TUE JUL 07 2015

NOTE: "FAIR" INDICATES FEW OR NO CLOUDS BELOW 12,000 FEET WITH NO
SIGNIFICANT WEATHER AND/OR NO OBSTRUCTIONS TO VISIBILITY.

NYZ032-033-038>043-046>054-057>066-NYZ062>081-080200-
EAST


CITY           SKY/WX    TMP DP  RH WIND       PRES   REMARKS
ALBANY         MOCLDY    77  70  79 S6        29.91R
GLENS FALLS    CLOUDY    73  69  87 S8        29.89S
POUGHKEEPSIE   MOCLDY    77  73  87 SE3       29.93R
NEWBURGH       PTCLDY    77  72  83 W6        29.96S
MONTGOMERY     PTCLDY    76  70  82 SW7       29.95R
WHITE PLAINS   PTCLDY    74  71  91 CALM      29.97R
ISLIP          MOCLDY    76  71  85 SW10      29.97R
NEW YORK CITY  PTCLDY    84  67  56 SW6       29.95R
CENTRAL PARK   CLEAR     82  68  62 CALM      29.98S
$$

NYZ005>009-017-018-044>046-055-056-080200-
CENTRAL


CITY           SKY/WX    TMP DP  RH WIND       PRES   REMARKS
FULTON         LGT RAIN  74  68  81 SW10G17   29.86R
SYRACUSE       LGT RAIN  72  71  97 W10       29.87R
ROME           MOCLDY    78  70  76 SE6       29.87S
ELMIRA         CLOUDY    69  68  96 CALM      29.93R
BINGHAMTON     CLEAR     74  66  76 SW7       29.96S
MONTICELLO     PTCLDY    72  68  88 SW5       30.01R
$$

NYZ026>034-041>043-080200-
NORTH


CITY           SKY/WX    TMP DP  RH WIND       PRES   REMARKS
WATERTOWN      CLOUDY    70  68  93 S5        29.83S FOG
FORT DRUM      NOT AVBL
MASSENA        CLOUDY    77  66  68 S6        29.77F
SARANAC LAKE   PTCLDY    73  65  75 SW8       29.87F
PLATTSBURGH    PTCLDY    76  70  82 S5        29.80S
$$

NYZ001>004-010>016-019>021-080200-
WEST


CITY           SKY/WX    TMP DP  RH WIND       PRES   REMARKS
NIAGARA FALLS  CLOUDY    70  67  90 SW15      29.87R
BUFFALO        LGT RAIN  71  68  90 SW15      29.88S
DUNKIRK        CLOUDY    72  68  87 SW9       29.91R
JAMESTOWN      CLOUDY    68  64  88 SW3       29.96S
WELLSVILLE     CLOUDY    67  64  90 N8        29.99S FOG
ROCHESTER      LGT RAIN  72  69  90 SW9       29.87S
PENN YAN       CLOUDY    69  66  90 SW8       29.91F
$$

             KEY
       WCI = WIND CHILL INDEX
       VSB = VISIBILITY
       HX  = HEAT INDEX
$$


USA.gov is the U.S. government's official web portal to all federal, state and local government web resources and services.